Powrót do katalogu

RAPTOR4

AktywnyNaukaLEO
NORAD 58956·PAYLOAD·🇺🇸 United States

Wystrzelony Feb 14, 2024 z Cape Canaveral Space Force Station

Loading…

Następne Przeloty (najbliższe 24 godziny)

TLE

Starzejące sięSource: Space-Track

Epoka: Sep 10, 2026, 18:53 UTC

1 58956U 24028B   26253.78686246 -.00000053  00000-0  27244-4 0  9996
2 58956  39.9922   9.7920 0014288  12.8265 347.2844 13.73969954128811

Śledź RAPTOR4 w czasie rzeczywistym z AllMySat

Download on the App Store